Flag for Norway Weather past 2 weeks in Stavern, Norway

Now
52 °F

Mostly cloudy.


Feels Like: 46 °F
Forecast: 45 / 62 °F
Wind: 21 mph from Southwest

Location: Torp

Current Time: May 22, 2015 at 6:27:11 PM

Latest Report: May 22, 2015 at 5:50 PM


Visibility: N/A

Pressure: 29.80 "Hg

Humidity: 88%

Dew point: 48 °F

Location of StavernLocation

Historic Weather in Stavern — Graph

°F

Stavern temperature yesterday

Maximum temperature yesterday: 57 °F (at 11:50 AM)
Minimum temperature yesterday: 41 °F (at 4:20 AM)
Average temperature yesterday: 49 °F

Past Weeks' High & Low Weather Summary

 TemperatureHumidityPressure
High61 °F (May 13, 3:50 PM)100% (May 9, 11:50 PM)30.15 "Hg (May 9, 11:50 PM)
Low34 °F (May 9, 4:50 AM)29% (May 10, 5:50 PM)29.39 "Hg (May 19, 8:20 AM)
Average48 °F72%29.81 "Hg
* Reported May 7 5:20 PM — May 22 5:20 PM, Stavern, Weather by CustomWeather, © 2015

Note: Actual official high and low records may vary slightly from our data, if they occured in-between our weather recording intervals... More about our weather records

Advertising

Stavern weather history for previous 24 hours

 ConditionsComfort  
Time TempWeatherWind HumidityBarometerVisibility
5:20 PM
Fri, May 22
52 °FScattered showers. Broken clouds.20 mph88%29.80 "HgN/A
4:50 PM54 °FScattered showers. Broken clouds.21 mph82%29.80 "HgN/A
4:20 PM54 °FPartly sunny.23 mph82%29.83 "HgN/A
3:50 PM54 °FLow clouds.23 mph82%29.83 "HgN/A
3:20 PM52 °FLow clouds.21 mph88%29.86 "HgN/A
2:50 PM52 °FLow clouds.20 mph88%29.86 "HgN/A
2:20 PM50 °FLow clouds.18 mph94%29.89 "Hg6 mi
1:50 PM50 °FLow clouds.17 mph94%29.89 "HgN/A
1:20 PM50 °FPartly sunny.22 mph94%29.92 "HgN/A
12:50 PM52 °FDrizzle. Partly sunny.22 mph82%29.92 "HgN/A
12:20 PM50 °FPartly sunny.23 mph88%29.92 "HgN/A
11:50 AM52 °FPartly sunny.18 mph82%29.95 "HgN/A
11:20 AM50 °FPartly sunny.18 mph88%29.95 "HgN/A
10:50 AM50 °FBroken clouds.20 mph88%29.95 "HgN/A
10:20 AM50 °FDrizzle. Partly sunny.20 mph88%29.95 "HgN/A
9:50 AM50 °FScattered showers. Broken clouds.18 mph88%29.98 "HgN/A
9:20 AM50 °FBroken clouds.18 mph82%29.98 "HgN/A
8:50 AM50 °FBroken clouds.17 mph82%29.98 "HgN/A
8:20 AM50 °FBroken clouds.18 mph82%29.98 "HgN/A
7:50 AM48 °FScattered clouds.17 mph87%29.98 "HgN/A
7:20 AM48 °FScattered clouds.16 mph82%29.98 "HgN/A
6:50 AM48 °FScattered clouds.15 mph82%29.98 "HgN/A
6:20 AM48 °FSunny.16 mph82%29.98 "Hg10 mi
5:50 AM46 °FSunny.17 mph87%29.98 "Hg10 mi
5:20 AM46 °FPassing clouds.15 mph87%29.98 "HgN/A
4:50 AM46 °FPassing clouds.12 mph82%30.01 "HgN/A
4:20 AM46 °FPassing clouds.9 mph82%30.01 "HgN/A
3:50 AM46 °FCool.8 mph82%30.01 "HgN/A
3:20 AM46 °FPassing clouds.9 mph82%30.01 "HgN/A
2:50 AM46 °FPassing clouds.9 mph82%30.01 "HgN/A
2:20 AM46 °FOvercast.8 mph87%30.01 "HgN/A
1:50 AM45 °FPassing clouds.7 mph100%30.01 "HgN/A
1:20 AM45 °FQuite cool.7 mph100%30.01 "HgN/A
12:50 AM45 °FQuite cool.7 mph100%30.01 "HgN/A
12:20 AM45 °FQuite cool.6 mph100%30.01 "Hg5 mi
11:50 PM
Thu, May 21
45 °FQuite cool.2 mph100%30.01 "HgN/A
11:20 PM45 °FQuite cool.1 mph100%30.01 "Hg5 mi
10:50 PM45 °FPassing clouds.3 mph100%30.01 "HgN/A
10:20 PM48 °FScattered clouds.3 mph87%30.01 "HgN/A
9:50 PM48 °FScattered clouds.6 mph87%30.01 "HgN/A
9:20 PM48 °FScattered clouds.10 mph87%30.04 "HgN/A
8:50 PM50 °FPartly sunny.14 mph82%30.04 "HgN/A
8:20 PM50 °FScattered clouds.14 mph82%30.04 "HgN/A
7:50 PM50 °FScattered clouds.18 mph76%30.01 "HgN/A
7:20 PM50 °FScattered clouds.21 mph76%30.01 "HgN/A
6:50 PM52 °FScattered clouds.16 mph72%30.04 "HgN/A
6:20 PM54 °FScattered clouds.18 mph67%30.04 "HgN/A
Weather by CustomWeather, © 2015

See weather overviewHow to use our weather pages